Location: Lane
(33.5226°N, 79.8788°W)
Time: 19:56:34
(UTC+00:00)

Explorer 11/Cluster Stage 4 - Pass Details

Date: 07 October 2022
Orbit: 466 x 1247 km, 28.8° (Epoch: 01 December)

Event Time Altitude Azimuth Distance (km) Brightness Sun altitude
Rises 16:25:29 0° 258° (WSW) 4,139 10.2 49.6°
Reaches altitude 10° 16:28:24 10° 256° (WSW) 3,203 9.8 49.7°
Maximum altitude 16:36:29 63° 178° (S) 1,356 9.9 50.1°
Drops below altitude 10° 16:44:05 10° 99° (E) 3,024 9.9 50.4°
Sets 16:46:46 0° 96° (E) 3,897 10.3 50.5°
